Shirley, NY

2:25 AM EDT on March 27, 2017 (GMT -0400)
Brookhaven

Weather History for KHWV - February, 2014

Change the Weather History Date:

Tuesday, February 18, 2014

  Actual Average (KISP) Record (KISP)
Temperature  
Mean Temperature 27 °F -  
Max Temperature 39 °F 39 °F 60 °F (2011)
Min Temperature 15 °F 24 °F 7 °F (2015)
Degree Days  
Heating Degree Days 38    
Moisture  
Dew Point 28 °F    
Average Humidity 81    
Maximum Humidity 100    
Minimum Humidity 51    
Precipitation  
Precipitation 0.52 in - - ()
Sea Level Pressure  
Sea Level Pressure 30.09 in    
Wind  
Wind Speed 6 mph (SSE)    
Max Wind Speed 15 mph    
Max Gust Speed 18 mph    
Visibility 6 miles    
Events Rain , Snow    
Averages and records for this station are not official NWS values.
T = Trace of Precipitation, MM = Missing Value Source: NWS Daily Summary

Daily Weather History Graph

Daily Weather History Graph

Search for Another Location

Airport or City:

Trip Planner

Search our weather history database for the weather conditions in past years. The results will help you decide how hot, cold, wet, or windy it might be!

Date:

Astronomy

Feb. 18, 2014 Rise Set
Actual Time 6:41 AM EST 5:29 PM EST
Civil Twilight 6:13 AM EST 5:57 PM EST
Nautical Twilight 5:41 AM EST 6:29 PM EST
Astronomical Twilight 5:09 AM EST 7:01 PM EST
Moon 9:22 PM EST (2/18) 8:10 AM EST (2/18)
Length of Visible Light 11h 44m
Length of Day
10h 48m
Waning Gibbous, 87% of the Moon is Illuminated
Feb 18
Waning Gibbous
Feb 22
Last Quarter
Mar 1
New
Mar 8
First Quarter
Mar 16
Full

Hourly Weather History & Observations

Time (EST) Temp. Windchill Dew Point Humidity Pressure Visibility Wind Dir Wind Speed Gust Speed Precip Events Conditions
12:56 AM 15.1 °F - 5.0 °F 64% 30.36 in 10.0 mi Calm Calm - N/A   Clear
1:56 AM 21.0 °F - 8.1 °F 57% 30.33 in 10.0 mi Calm Calm - N/A   Clear
2:56 AM 24.1 °F 19.7 °F 8.1 °F 51% 30.29 in 10.0 mi Variable 3.5 mph - N/A   Mostly Cloudy
3:56 AM 24.1 °F 19.7 °F 10.0 °F 55% 30.29 in 10.0 mi NNE 3.5 mph - N/A   Mostly Cloudy
4:56 AM 24.1 °F 19.7 °F 10.9 °F 57% 30.24 in 10.0 mi ENE 3.5 mph - N/A   Partly Cloudy
5:56 AM 33.1 °F 26.1 °F 23.0 °F 66% 30.20 in 10.0 mi SE 8.1 mph - N/A   Overcast
6:49 AM 35.1 °F 29.3 °F 25.0 °F 67% 30.18 in 4.0 mi SE 6.9 mph - 0.00 in Snow Light Snow
6:56 AM 35.1 °F 27.4 °F 26.1 °F 70% 30.19 in 2.0 mi SSE 10.4 mph - 0.00 in Snow Light Snow
7:21 AM 33.1 °F 26.1 °F 28.0 °F 82% 30.18 in 0.8 mi SE 8.1 mph - 0.00 in Snow Light Snow
7:24 AM 33.1 °F 26.1 °F 28.0 °F 82% 30.18 in 0.8 mi SE 8.1 mph - 0.00 in Snow Light Snow
7:38 AM 33.1 °F 26.1 °F 28.9 °F 85% 30.17 in 1.0 mi SE 8.1 mph - 0.00 in Snow Light Snow
7:43 AM 33.1 °F 25.5 °F 28.9 °F 85% 30.17 in 1.0 mi SE 9.2 mph - 0.00 in Snow Light Snow
7:54 AM 33.8 °F 27.7 °F 30.2 °F 87% 30.17 in 0.8 mi SE 6.9 mph - 0.01 in Snow Light Snow
7:56 AM 33.1 °F 27.7 °F 30.0 °F 89% 30.17 in 0.8 mi SE 5.8 mph - 0.01 in Snow Light Snow
8:08 AM 33.1 °F 26.9 °F 30.0 °F 89% 30.17 in 1.2 mi SE 6.9 mph - 0.00 in Snow Light Snow
8:56 AM 33.1 °F 24.9 °F 30.9 °F 92% 30.14 in 1.0 mi SE 10.4 mph - 0.02 in Snow Light Snow
9:08 AM 34.0 °F 27.2 °F 32.0 °F 92% 30.11 in 1.2 mi SE 8.1 mph - 0.01 in Snow Light Snow
9:29 AM 34.0 °F 26.6 °F 32.0 °F 92% 30.10 in 3.0 mi SE 9.2 mph 17.3 mph 0.05 in Snow Light Snow
9:56 AM 35.1 °F 29.3 °F 33.1 °F 92% 30.10 in 5.0 mi SE 6.9 mph - 0.10 in Snow Light Snow
10:08 AM 34.0 °F 29.8 °F 33.1 °F 96% 30.09 in 2.0 mi SE 4.6 mph - 0.03 in Snow Light Snow
10:30 AM 36.0 °F 29.6 °F 34.0 °F 93% 30.07 in 3.0 mi SE 8.1 mph - 0.11 in Rain Rain
10:49 AM 37.0 °F 33.3 °F 35.1 °F 93% 30.06 in 4.0 mi ESE 4.6 mph - 0.16 in Rain Light Rain
10:56 AM 37.0 °F 33.3 °F 35.1 °F 93% 30.05 in 4.0 mi Variable 4.6 mph - 0.18 in Rain Rain
11:18 AM 37.0 °F 33.3 °F 35.1 °F 93% 30.02 in 4.0 mi Variable 4.6 mph - 0.05 in Rain Rain
11:56 AM 35.1 °F 25.5 °F 33.1 °F 92% 29.98 in 2.5 mi North 15.0 mph 18.4 mph 0.19 in Rain Light Rain
12:09 PM 34.0 °F 24.2 °F 30.9 °F 89% 29.97 in 3.0 mi North 15.0 mph 18.4 mph 0.02 in Rain Light Rain
12:56 PM 35.1 °F 28.6 °F 34.0 °F 96% 29.95 in 10.0 mi North 8.1 mph - 0.02 in   Mostly Cloudy
1:12 PM 36.0 °F 29.0 °F 36.0 °F 100% 29.95 in 10.0 mi North 9.2 mph - N/A   Mostly Cloudy
1:56 PM 37.9 °F 32.1 °F 36.0 °F 93% 29.95 in 10.0 mi NNW 8.1 mph - N/A   Mostly Cloudy
2:06 PM 37.9 °F 32.1 °F 34.0 °F 86% 29.95 in 10.0 mi NW 8.1 mph - N/A   Mostly Cloudy
2:32 PM 37.9 °F - 36.0 °F 93% 29.94 in 10.0 mi Calm Calm - N/A   Mostly Cloudy
2:56 PM 39.0 °F 36.8 °F 36.0 °F 89% 29.95 in 10.0 mi NW 3.5 mph - N/A   Mostly Cloudy
3:25 PM 39.0 °F 35.7 °F 34.0 °F 82% 29.95 in 10.0 mi WNW 4.6 mph - N/A   Scattered Clouds
3:30 PM 37.9 °F 32.7 °F 33.1 °F 83% 29.95 in 10.0 mi WNW 6.9 mph - N/A   Mostly Cloudy
3:56 PM 39.0 °F 31.8 °F 33.1 °F 79% 29.97 in 10.0 mi WNW 11.5 mph - N/A   Mostly Cloudy
4:16 PM 37.0 °F 30.4 °F 32.0 °F 82% 29.97 in 9.0 mi WNW 9.2 mph - N/A   Mostly Cloudy
4:56 PM 37.9 °F 30.9 °F 30.9 °F 76% 29.99 in 10.0 mi West 10.4 mph - N/A   Mostly Cloudy
5:56 PM 37.0 °F 28.9 °F 27.0 °F 67% 30.01 in 10.0 mi West 12.7 mph - N/A   Scattered Clouds
6:56 PM 36.0 °F 29.6 °F 26.1 °F 67% 30.04 in 10.0 mi West 8.1 mph - N/A   Clear
7:56 PM 35.1 °F 26.9 °F 25.0 °F 67% 30.07 in 10.0 mi WNW 11.5 mph - N/A   Clear
8:56 PM 34.0 °F 26.0 °F 25.0 °F 70% 30.09 in 10.0 mi West 10.4 mph - N/A   Clear
9:56 PM 32.0 °F 28.7 °F 23.0 °F 69% 30.10 in 10.0 mi West 3.5 mph - N/A   Clear
10:56 PM 30.0 °F 24.1 °F 21.9 °F 72% 30.12 in 9.0 mi WSW 5.8 mph - N/A   Clear
11:56 PM 28.9 °F - 21.9 °F 75% 30.11 in 8.0 mi Calm Calm - N/A   Clear